EHI
0 0 0 0 0 0 0 0 0 0 0 0 0 0 0 0 0 0 0 0 0 0 0 0 0 0 0 0 0 0 0 0 0 0 0 0 0 0 0 0 0 0 0 0
0 0 0 0 0 0 0 0 0 0 0 0 0 0 0 0 0 0 0 0 0 0 0 0 0 0 0 0 0 0 0 0 0 0 0 0 0 0 0 0 0 0 0 0
0 0 0 0 0 0 0 0 0 0 0 0 0 0 0 0 0 0 0 0 0 0 0 0 0 0 0 0 0 0 0 0 0 0 0 0 0 0 0 0 0 0 0 0
0 0 0 0 0 0 0 0 0 0 0 0 0 0 0 0 0 0 0 0 0 0 0 0 0 0 0 0 0 0 0 0 0 0 0 0 0 0 0 0 0 0 0 0
0 0 0 0 0 0 0 0 0 0 0 0 0 0 0 0 0 0 0 0 0 0 0 0 0 0 0 0 0 0 0 0 0 0 0 0 0 0 0 0 0 0 0 0
0 0 0 0 0 0 0 0 0 0 0 0 0 0 0 0 0 0 0 0 0 0 0 0 0 0 0 0 0 0 0 0 0 0 0 0 0 0 0 0 0 0 0 0
0 0 0 0 0 0 0 0 0 0 0 0 0 0 0 0 0 0 0 0 0 0 0 0 0 0 0 0 0 0 0 0 0 0 0 0 0 0 0 0 0 0 0 0
0 0 0 0 0 0 0 0 0 0 0 0 0 0 0 0 0 0 0 0 0 0 0 0 0 0 0 0 0 0 0 0 0 0 0 0 0 0 0 0 0 0 0 0
0 0 0 0 0 0 0 0 0 0 0 0 0 0 0 0 0 0 0 0 0 0 0 0 0 0 0 0 0 0 0 0 0 0 0 0 0 0 0 0 0 0 0 0
0 0 0 0 0 0 0 0 0 0 0 0 0 0 0 0 0 0 0 0 0 0 0 0 0 0 0 0 0 0 0 0 0 0 0 0 0 0 0 0 0 0 0 0
0 0 0 0 0 0 0 0 0 0 0 0 0 0 0 0 0 0 0 0 0 0 0 0 0 0 0 0 0 0 0 0 0 0 0 0 0 0 0 0 0 0 0 0
0 0 0 0 0 0 0 0 0 0 0 0 0 0 0 0 0 0 0 0 0 0 0 0 0 0 0 0 0 0 0 0 0 0 0 0 0 0 0 0 0 0 0 0
0 0 0 0 0 0 0 0 0 0 0 0 0 0 0 0 0 0 0 0 0 0 0 0 0 0 0 0 0 0 0 0 0 0 0 0 0 0 0 0 0 0 0 0
0 0 0 0 0 0 0 0 0 0 0 0 0 0 0 0 0 0 0 0 0 0 0 0 0 0 0 0 0 0 0 0 0 0 0 0 0 0 0 0 0 0 0 0
0 0 0 0 0 0 0 0 0 0 0 0 0 0 0 0 0 0 0 0 0 0 0 0 0 0 0 0 0 0 0 0 0 0 0 0 0 0 0 0 0 0 0 0
0 0 0 0 0 0 0 0 0 0 0 0 0 0 0 0 0 0 0 0 0 0 0 0 0 0 0 0 0 0 0 0 0 0 0 0 0 0 0 0 0 0 0 0
0 0 0 0 0 0 0 0 0 0 0 0 0 0 0 0 0 0 0 0 0 0 0 0 0 0 0 0 0 0 0 0 0 0 0 0 0 0 0 0 0 0 0 0
0 0 0 0 0 0 0 0 0 0 0 0 0 0 0 0 0 0 0 0 0 0 0 0 0 0 0 0 0 0 0 0 0 0 0 0 0 0 0 0 0 0 0 0
0 0 0 0 0 0 0 0 0 0 0 0 0 0 0 0 0 0 0 0 0 0 0 0 0 0 0 0 0 0 0 0 0 0 0 0 0 0 0 0 0 0 0 0
0 0 0 0 0 0 0 0 0 0 0 0 0 0 0 0 0 0 0 0 0 0 0 0 0 0 0 0 0 0 0 0 0 0 0 0 0 0 0 0 0 0 0 0
0 0 0 0 0 0 0 0 0 0 0 0 0 0 0 0 0 0 0 0 0 0 0 0 0 0 0 0 0 0 0 0 0 0 0 0 0 0 0 0 0 0 0 0
0 0 0 0 0 0 0 0 0 0 0 0 0 0 0 0 0 0 0 0 0 0 0 0 0 0 0 0 0 0 0 0 0 0 0 0 0 0 0 0 0 0 0 0
0 0 0 0 0 0 0 0 0 0 0 0 0 0 0 0 0 0 0 0 0 0 0 0 0 0 0 0 0 0 0 0 0 0 0 0 0 0 0 0 0 0 0 0
0 0 0 0 0 0 0 0 0 0 0 0 0 0 0 0 0 0 0 0 0 0 0 0 0 0 0 0 0 0 0 0 0 0 0 0 0 0 0 0 0 0 0 0
0 0 0 0 0 0 0 0 0 0 0 0 0 0 0 0 0 0 0 0 0 0 0 0 0 0 0 0 0 0 0 0 0 0 0 0 0 0 0 0 0 0 0 0
0 0 0 0 0 0 0 0 0 0 0 0 0 0 0 0 0 0 0 0 0 0 0 0 0 0 0 0 0 0 0 0 0 0 0 0 0 0 0 0 0 0 0 0
0 0 0 0 0 0 0 0 0 0 0 0 0 0 0 0 0 0 0 0 0 0 0 0 0 0 0 0 0 0 0 0 0 0 0 0 0 0 0 0 0 0 0 0
Wind_Speed
2 3 4 6 9 12 11 8 6 4 4 5 5 5 6 5 5 4 1 0 0 1 2 3 3 4 5 5 5 5 5 6 6 7 7 8 8 9 9 10 9 9 10 10
2 2 3 5 9 12 12 12 12 9 9 7 5 5 6 7 5 4 2 1 0 1 1 2 3 3 4 4 5 5 6 7 7 7 8 8 9 9 10 10 10 10 10 10
2 1 2 7 10 13 10 9 10 12 9 5 5 6 7 6 4 3 1 1 1 1 1 1 2 3 3 4 4 6 7 7 7 7 8 8 9 10 10 10 10 10 10 10
2 2 6 1 1 6 10 10 11 10 8 7 7 7 7 5 3 2 1 1 2 2 2 2 2 3 3 4 5 6 7 7 7 8 8 9 9 10 10 9 9 9 10 10
2 3 5 2 3 5 6 5 7 11 10 8 6 6 3 2 1 0 1 2 2 2 3 3 3 4 4 5 6 7 7 7 7 7 8 9 9 9 8 9 9 9 9 9
3 3 3 1 2 3 4 3 2 4 4 3 2 4 0 3 2 2 3 3 3 3 4 4 4 4 5 5 6 7 7 7 7 8 8 8 8 8 8 8 8 8 8 7
5 4 4 1 2 4 4 2 2 2 2 2 3 3 2 2 2 3 3 4 4 4 4 4 4 5 6 6 6 6 7 8 8 8 8 8 8 7 8 8 8 8 8 7
5 6 4 3 4 4 2 2 1 2 2 3 4 3 1 2 3 4 5 5 5 5 4 4 5 6 7 6 6 7 7 8 8 8 7 7 8 7 7 7 7 7 6 6
5 3 2 1 2 1 2 2 3 3 3 3 3 3 3 3 4 5 5 5 5 6 6 5 5 5 7 6 7 7 8 8 8 7 6 6 6 7 6 5 4 4 4 3
4 4 3 3 3 2 2 3 4 4 4 4 4 4 4 4 4 5 6 6 6 7 6 5 5 5 6 7 7 8 8 8 7 7 6 5 4 4 4 4 3 3 3 3
6 4 3 2 1 1 2 2 3 4 4 4 4 4 4 4 5 6 6 7 7 6 6 6 6 6 7 7 8 8 8 7 6 6 6 5 4 4 3 3 2 2 2 2
4 2 2 1 1 3 3 4 5 5 5 4 4 4 4 4 5 6 7 7 7 7 7 7 7 7 7 7 8 8 7 6 5 5 4 4 5 5 6 5 6 5 4 2
1 1 3 3 2 2 4 5 5 5 5 5 4 4 4 4 5 6 7 8 8 8 8 8 8 7 7 7 8 7 7 6 5 5 5 5 4 4 4 5 6 5 4 2
0 1 3 2 3 5 5 6 5 5 4 4 4 3 4 4 5 7 8 8 8 8 8 8 8 7 8 8 7 7 7 6 6 5 4 4 4 3 3 3 3 2 2 1
1 1 3 4 5 5 5 4 5 5 4 3 3 4 5 5 6 7 7 7 8 8 8 8 8 7 7 8 8 8 7 5 5 4 4 4 3 3 2 2 2 1 1 1
2 3 3 4 5 5 5 5 5 6 5 4 4 4 4 5 5 5 7 8 9 9 9 8 8 7 8 8 8 6 5 8 6 5 4 4 4 3 3 2 2 2 2 1
1 2 3 4 6 6 6 6 6 6 5 4 4 3 4 5 5 6 6 7 6 6 7 8 7 7 8 8 8 6 6 7 8 5 4 4 4 3 3 2 2 2 2 2
1 3 4 5 6 7 7 6 6 5 4 3 3 4 5 6 7 6 6 6 6 5 6 6 7 7 7 7 6 5 5 6 5 5 4 4 4 3 3 3 2 3 2 3
2 3 4 5 6 6 6 6 5 4 3 2 3 4 5 5 5 5 6 7 8 7 6 7 11 9 8 8 8 5 6 6 5 5 4 5 4 3 3 3 3 3 3 3
3 4 4 5 5 5 5 5 4 3 1 1 2 3 3 4 4 5 6 6 5 4 6 8 9 7 7 8 9 5 6 6 6 5 5 4 4 4 3 3 3 3 3 4
4 4 5 5 5 5 5 4 3 3 2 1 2 3 3 3 4 5 5 5 4 5 7 11 7 6 7 8 9 6 6 6 6 5 5 5 4 4 3 3 3 3 4 4
4 4 5 5 5 5 4 4 3 3 2 1 1 1 2 3 4 4 4 3 4 8 7 6 6 8 10 10 6 6 6 6 5 5 5 4 4 4 4 4 4 4 4 4
3 4 4 5 5 4 4 4 4 3 2 2 2 2 3 3 3 4 3 3 4 9 7 5 8 13 14 8 6 6 6 6 5 5 5 4 4 4 4 4 4 4 4 4
3 3 4 4 4 4 4 5 5 3 3 3 2 2 2 2 2 2 2 5 8 8 5 8 13 15 13 6 6 6 6 6 5 5 4 4 4 4 4 4 4 4 4 5
2 3 3 4 4 3 4 5 4 4 4 3 2 2 1 1 2 2 2 5 8 8 5 9 14 14 9 5 6 6 5 5 5 5 5 4 4 4 4 4 4 4 4 5
2 2 2 3 3 3 3 3 3 3 3 3 3 2 2 1 1 1 2 4 6 7 5 5 7 9 6 6 6 6 5 5 5 5 4 4 4 4 4 4 5 4 5 5
2 2 2 2 2 2 3 3 3 4 3 3 4 3 2 2 1 1 2 3 3 4 4 4 5 5 5 5 5 5 4 4 4 4 4 4 3 4 4 4 4 4 4 5
Wind_Direction
83 119 164 195 195 196 209 216 226 228 232 228 228 260 289 300 306 307 300 260 58 42 38 26 20 18 17 19 20 23 33 41 43 47 56 63 69 74 78 82 86 92 95 95
124 144 203 227 219 212 220 228 238 253 266 264 269 272 280 289 297 293 285 235 123 71 49 38 30 26 27 31 35 46 55 55 56 61 66 69 73 78 82 84 86 89 91 94
165 157 239 246 225 210 210 216 222 235 243 255 272 280 291 296 291 276 264 209 177 120 85 55 44 41 46 48 58 67 68 67 67 70 73 74 79 82 83 84 87 89 91 94
167 201 237 83 87 209 217 229 226 239 251 261 274 291 290 285 265 243 203 181 159 132 115 100 92 86 83 79 80 79 76 73 74 78 80 81 82 83 84 85 86 88 89 92
200 242 269 268 195 184 200 235 229 235 252 266 282 282 245 163 168 169 147 143 137 131 130 128 116 110 106 97 91 87 81 77 81 87 90 89 87 86 87 89 88 88 88 91
200 246 251 101 111 172 198 210 161 211 241 253 252 265 149 132 142 133 127 130 131 131 131 129 122 125 118 104 95 90 89 88 88 90 93 94 94 94 92 91 92 92 87 88
218 246 272 294 145 168 213 115 134 222 259 249 248 291 26 138 161 150 142 137 138 139 134 130 133 131 117 108 99 100 102 98 93 94 96 99 98 95 98 98 97 94 92 87
207 226 242 120 159 198 14 44 265 282 289 276 274 283 225 198 177 163 154 150 150 144 134 134 141 135 122 115 113 112 109 104 100 100 101 102 102 100 101 105 104 101 99 92
221 239 39 145 206 346 337 290 299 299 301 287 270 254 226 207 188 176 167 161 158 150 140 139 143 141 131 128 128 122 114 108 105 103 100 105 109 113 112 112 111 110 108 105
251 256 250 246 256 289 283 278 294 294 290 269 265 259 234 208 191 180 173 168 163 158 153 148 144 139 135 137 137 129 121 117 115 111 108 106 106 112 116 118 121 124 124 123
241 260 259 213 167 347 330 315 308 307 290 272 264 253 233 212 197 185 176 171 169 168 162 154 148 143 143 146 144 135 129 125 121 117 119 113 103 91 99 94 103 129 131 135
230 216 241 206 31 345 322 313 310 305 297 282 260 252 232 214 196 183 177 171 171 170 163 158 156 151 151 154 151 143 138 136 132 133 130 127 122 107 82 90 99 98 99 100
271 318 274 293 303 341 318 312 307 292 285 282 267 245 224 205 188 182 177 176 175 172 166 162 160 157 158 160 160 155 149 145 144 147 146 146 144 140 132 109 97 93 92 90
205 282 263 280 305 320 313 307 302 293 284 271 259 235 210 195 185 185 184 179 171 166 165 165 164 163 162 163 161 154 149 149 152 153 154 155 156 156 155 160 165 146 98 63
183 289 280 297 301 307 306 302 296 292 292 278 244 220 204 197 193 189 177 166 163 165 167 168 168 166 164 163 161 157 155 155 154 151 152 153 153 155 159 168 179 181 198 202
295 291 282 289 299 307 304 295 287 287 283 271 249 228 211 199 187 175 169 168 171 177 176 175 175 169 166 164 159 157 159 157 155 153 154 156 161 168 175 184 198 216 235 256
261 293 308 305 307 306 300 292 286 284 277 262 246 220 188 173 170 172 176 179 181 179 177 178 174 165 167 167 163 159 156 159 162 159 163 167 173 181 187 196 211 233 247 261
280 294 297 297 299 301 300 299 294 286 274 262 231 195 186 185 188 184 178 170 167 171 181 179 168 163 167 168 164 159 158 159 165 167 168 173 178 183 192 205 218 238 254 260
345 321 311 306 306 300 297 302 301 292 281 235 203 202 202 200 192 182 173 175 182 188 188 177 172 169 171 172 164 160 160 161 164 167 171 175 179 188 199 212 226 240 252 260
3 345 335 329 328 321 315 317 318 317 315 231 200 196 198 196 183 178 182 194 202 191 168 171 171 171 173 173 167 164 166 168 171 171 175 183 189 197 206 218 232 243 252 260
358 350 345 339 336 339 339 337 338 336 337 290 216 212 206 195 184 182 187 203 197 168 167 172 173 173 172 171 170 170 171 173 176 179 183 188 194 203 213 223 233 243 253 262
355 350 346 342 343 347 353 355 354 349 344 327 284 215 194 194 194 200 211 211 181 176 173 175 175 178 177 172 174 174 176 177 179 182 187 192 198 208 218 227 237 245 253 261
354 347 346 347 344 339 348 360 360 350 335 315 285 246 229 221 206 204 213 193 178 183 179 181 184 182 179 174 175 177 179 181 184 188 192 195 203 213 222 231 240 248 256 262
357 353 349 345 346 353 354 351 346 340 332 319 300 271 245 231 230 230 220 189 190 187 187 187 186 185 180 177 177 181 184 186 187 189 192 196 205 214 223 232 243 251 257 265
350 344 346 349 353 349 340 336 337 340 342 335 328 312 281 259 247 234 207 195 193 187 185 190 189 186 182 178 181 185 187 188 187 186 192 198 206 215 224 233 242 253 260 264
337 333 332 329 326 327 328 328 326 327 328 324 321 317 315 317 284 231 211 199 193 189 185 183 183 184 184 181 184 185 185 187 192 194 196 202 212 219 227 236 247 253 260 266
320 319 319 323 331 332 326 319 316 317 316 310 307 303 298 292 275 239 214 198 189 183 179 177 178 181 180 179 180 181 182 185 188 191 194 201 210 220 230 238 249 256 263 267